Weather History for Norwood, MA

Change the Weather History Date:

Friday, February 7, 2014

  Actual Average Record
Temperature  
Mean Temperature 14 °F -  
Max Temperature 30 °F 36 °F 51 °F (2005)
Min Temperature -2 °F 17 °F -2 °F (2014)
Degree Days  
Heating Degree Days 51    
Moisture  
Dew Point 5 °F    
Average Humidity 68    
Maximum Humidity 88    
Minimum Humidity 40    
Precipitation  
Precipitation 0.00 in - - ()
Sea Level Pressure  
Sea Level Pressure 30.22 in    
Wind  
Wind Speed 3 mph (WSW)    
Max Wind Speed 12 mph    
Max Gust Speed -    
Visibility 9 miles    
Events      
Averages and records for this station are not official NWS values.
T = Trace of Precipitation, MM = Missing Value Source: NWS Daily Summary

Daily Weather History Graph

Daily Weather History Graph

Search for Another Location

Airport:

Trip Planner

Search our weather history database for the weather conditions in past years. The results will help you decide how hot, cold, wet, or windy it might be!

Date:

Astronomy

Feb. 07, 2014 Rise Set
Actual Time 6:51 AM EST 5:06 PM EST
Civil Twilight 6:21 AM EST 5:36 PM EST
Nautical Twilight 5:48 AM EST 6:09 PM EST
Astronomical Twilight 5:16 AM EST 6:42 PM EST
Moon 11:15 AM EST (2/7) 1:04 AM EST (2/7)
Length of Visible Light 11h 14m
Length of Day
10h 15m
First Quarter, 59% of the Moon is Illuminated
Feb 7
First Quarter
Feb 14
Full
Feb 22
Last Quarter
Mar 1
New
Mar 8
First Quarter

Hourly Weather History & Observations

Time (EST) Temp. Windchill Dew Point Humidity Pressure Visibility Wind Dir Wind Speed Gust Speed Precip Events Conditions
12:53 AM 9.0 °F 2.4 °F 6.1 °F 88% 30.22 in 10.0 mi East 3.5 mph - N/A   Clear
1:53 AM 3.9 °F - -0.9 °F 80% 30.21 in 9.0 mi Calm Calm - N/A   Clear
2:53 AM 3.0 °F - -0.0 °F 87% 30.21 in 9.0 mi Calm Calm - N/A   Clear
3:53 AM 3.9 °F - 1.0 °F 88% 30.22 in 9.0 mi Calm Calm - N/A   Clear
4:53 AM 1.0 °F - -4.0 °F 79% 30.22 in 10.0 mi Calm Calm - N/A   Clear
5:53 AM -2.0 °F - -6.0 °F 83% 30.23 in 10.0 mi Calm Calm - N/A   Clear
6:16 AM -2.0 °F - -6.0 °F 83% 30.23 in 1.5 mi Calm Calm - N/A   Clear
6:26 AM -0.0 °F - -4.0 °F 83% 30.23 in 4.0 mi Calm Calm - N/A   Clear
6:53 AM -0.0 °F - -5.1 °F 79% 30.24 in 10.0 mi Calm Calm - N/A   Clear
7:53 AM 5.0 °F - 1.9 °F 87% 30.26 in 9.0 mi Calm Calm - N/A   Clear
8:53 AM 17.1 °F 7.6 °F 10.9 °F 77% 30.27 in 10.0 mi WSW 6.9 mph - N/A   Clear
9:53 AM 23.0 °F 11.7 °F 10.0 °F 58% 30.27 in 10.0 mi West 11.5 mph - N/A   Clear
10:53 AM 25.0 °F 14.2 °F 10.0 °F 53% 30.26 in 10.0 mi West 11.5 mph - N/A   Clear
11:53 AM 27.0 °F 16.7 °F 8.1 °F 45% 30.22 in 10.0 mi West 11.5 mph - N/A   Clear
12:53 PM 28.0 °F 18.6 °F 8.1 °F 43% 30.19 in 10.0 mi West 10.4 mph - N/A   Clear
1:53 PM 28.9 °F 19.2 °F 8.1 °F 41% 30.17 in 10.0 mi West 11.5 mph - N/A   Clear
2:53 PM 30.0 °F 21.7 °F 8.1 °F 40% 30.17 in 10.0 mi WSW 9.2 mph - N/A   Clear
3:53 PM 30.0 °F 21.7 °F 8.1 °F 40% 30.17 in 10.0 mi WSW 9.2 mph - N/A   Clear
4:53 PM 28.0 °F 21.7 °F 9.0 °F 45% 30.17 in 10.0 mi West 5.8 mph - N/A   Clear
5:53 PM 21.0 °F 16.2 °F 10.0 °F 63% 30.18 in 10.0 mi SSW 3.5 mph - N/A   Clear
6:53 PM 16.0 °F - 10.0 °F 77% 30.19 in 10.0 mi Calm Calm - N/A   Clear
7:53 PM 16.0 °F 8.8 °F 10.0 °F 77% 30.21 in 10.0 mi SSW 4.6 mph - N/A   Overcast
8:53 PM 24.1 °F 19.7 °F 12.0 °F 60% 30.21 in 10.0 mi SSW 3.5 mph - N/A   Overcast
9:53 PM 25.0 °F 20.7 °F 10.0 °F 53% 30.22 in 10.0 mi WSW 3.5 mph - N/A   Scattered Clouds
10:53 PM 12.9 °F - 8.1 °F 81% 30.22 in 10.0 mi Calm Calm - N/A   Clear
11:53 PM 8.1 °F - 5.0 °F 87% 30.22 in 10.0 mi Calm Calm - N/A   Clear